Manistique, MI

11:26 AM EDT on May 25, 2018 (GMT -0400)
Schoolcraft County

Weather History for KISQ - January, 2014

Change the Weather History Date:

Monday, January 27, 2014

  Actual Average Record
Temperature  
Mean Temperature -2 °F -  
Max Temperature 6 °F 25 °F 39 °F (1989)
Min Temperature -9 °F 7 °F -15 °F (1950)
Degree Days  
Heating Degree Days 66    
Moisture  
Dew Point -12 °F    
Average Humidity 68    
Maximum Humidity 84    
Minimum Humidity 56    
Precipitation  
Precipitation 0.00 in - - ()
Sea Level Pressure  
Sea Level Pressure 29.90 in    
Wind  
Wind Speed 17 mph (WNW)    
Max Wind Speed 23 mph    
Max Gust Speed 31 mph    
Visibility 5 miles    
Events Snow    
Averages and records for this station are not official NWS values.
T = Trace of Precipitation, MM = Missing Value Source: NWS Daily Summary

Daily Weather History Graph

Daily Weather History Graph

Search for Another Location

Airport or City:

Astronomy

Jan. 27, 2014 Rise Set
Actual Time 8:12 AM EST 5:42 PM EST
Civil Twilight 7:40 AM EST 6:15 PM EST
Nautical Twilight 7:04 AM EST 6:51 PM EST
Astronomical Twilight 6:28 AM EST 7:26 PM EST
Moon 4:55 AM EST (1/27) 2:25 PM EST (1/27)
Length of Visible Light 10h 35m
Length of Day
9h 30m
Waning Crescent, 15% of the Moon is Illuminated
Jan 27
Waning Crescent
Jan 30
New
Feb 6
First Quarter
Feb 14
Full
Feb 22
Last Quarter

Hourly Weather History & Observations

Time (EST) Temp. Windchill Dew Point Humidity Pressure Visibility Wind Dir Wind Speed Gust Speed Precip Events Conditions
12:14 AM 6.3 °F -13.6 °F 2.3 °F 84% 29.45 in 0.8 mi WNW 19.6 mph 27.6 mph N/A Snow Snow
12:35 AM 5.0 °F -15.2 °F 1.2 °F 84% 29.47 in 0.8 mi WNW 19.6 mph 31.1 mph N/A Snow Snow
12:54 AM 4.8 °F -15.5 °F 0.5 °F 82% 29.49 in 0.8 mi WNW 19.6 mph 29.9 mph N/A Snow Snow
1:15 AM 4.1 °F -17.4 °F -0.0 °F 83% 29.51 in 0.8 mi WNW 21.9 mph 29.9 mph N/A Snow Snow
1:35 AM 3.2 °F -18.1 °F -0.9 °F 83% 29.53 in 0.8 mi WNW 20.7 mph 26.5 mph N/A Snow Snow
1:54 AM 2.8 °F -18.6 °F -1.3 °F 83% 29.55 in 0.8 mi WNW 20.7 mph 27.6 mph N/A Snow Snow
2:15 AM 2.8 °F -17.0 °F -1.3 °F 83% 29.56 in 0.8 mi WNW 17.3 mph 24.2 mph N/A Snow Snow
2:34 AM 2.3 °F -18.2 °F -1.7 °F 84% 29.58 in 0.5 mi WNW 18.4 mph 26.5 mph N/A Snow Snow
2:54 AM 1.8 °F -19.5 °F -2.6 °F 82% 29.60 in 0.8 mi WNW 19.6 mph 26.5 mph N/A Snow Light Snow
3:15 AM 1.2 °F -19.6 °F -3.1 °F 82% 29.62 in 0.8 mi WNW 18.4 mph 27.6 mph N/A Snow Snow
3:34 AM 0.9 °F -20.7 °F -3.1 °F 83% 29.64 in 0.5 mi WNW 19.6 mph 26.5 mph N/A Snow Snow
3:54 AM 0.3 °F -20.8 °F -4.0 °F 82% 29.66 in 0.8 mi WNW 18.4 mph 27.6 mph N/A Snow Light Snow
4:15 AM -0.4 °F -22.3 °F -6.0 °F 77% 29.68 in 1.2 mi WNW 19.6 mph 31.1 mph N/A Snow Light Snow
4:34 AM -1.7 °F -22.8 °F -7.6 °F 76% 29.69 in 3.0 mi WNW 17.3 mph 23.0 mph N/A   Haze
4:55 AM -2.4 °F -24.3 °F -8.5 °F 75% 29.71 in 2.5 mi WNW 18.4 mph 28.8 mph N/A   Haze
5:15 AM -3.1 °F -25.3 °F -8.7 °F 77% 29.73 in 3.0 mi WNW 18.4 mph 29.9 mph N/A   Haze
5:34 AM -3.1 °F -25.3 °F -9.4 °F 74% 29.74 in 4.0 mi WNW 18.4 mph 27.6 mph N/A   Haze
5:55 AM -3.6 °F -26.5 °F -9.8 °F 75% 29.76 in 3.0 mi WNW 19.6 mph 26.5 mph N/A   Haze
6:14 AM -4.0 °F -27.0 °F -10.5 °F 74% 29.77 in 2.5 mi WNW 19.6 mph 26.5 mph N/A   Haze
6:34 AM -4.9 °F -27.0 °F -11.2 °F 74% 29.79 in 5.0 mi WNW 17.3 mph 23.0 mph N/A   Haze
6:54 AM -5.1 °F -26.6 °F -12.3 °F 71% 29.80 in 4.0 mi WNW 16.1 mph 28.8 mph N/A   Haze
7:14 AM -5.8 °F -28.2 °F -12.6 °F 72% 29.82 in 5.0 mi WNW 17.3 mph 23.0 mph N/A   Haze
7:35 AM -6.2 °F -28.6 °F -13.0 °F 72% 29.83 in 7.0 mi West 17.3 mph - N/A   Clear
7:54 AM -6.9 °F -30.2 °F -13.0 °F 75% 29.85 in 5.0 mi WNW 18.4 mph 21.9 mph N/A   Haze
8:14 AM -7.4 °F -29.6 °F -13.7 °F 74% 29.86 in 3.0 mi WNW 16.1 mph 24.2 mph N/A   Haze
8:34 AM -7.6 °F -29.8 °F -14.1 °F 73% 29.87 in 2.5 mi West 16.1 mph 23.0 mph N/A   Haze
8:54 AM -7.2 °F -31.3 °F -14.3 °F 71% 29.88 in 2.5 mi WNW 19.6 mph 25.3 mph N/A   Haze
9:14 AM -6.7 °F -30.0 °F -14.3 °F 70% 29.90 in 1.8 mi WNW 18.4 mph 27.6 mph N/A   Haze
9:34 AM -6.7 °F -30.0 °F -14.8 °F 68% 29.91 in 2.5 mi WNW 18.4 mph 24.2 mph N/A   Haze
9:55 AM -6.2 °F -30.4 °F -14.3 °F 68% 29.92 in 1.5 mi WNW 20.7 mph 27.6 mph N/A   Haze
10:14 AM -5.8 °F -28.8 °F -14.1 °F 67% 29.93 in 1.8 mi WNW 18.4 mph 26.5 mph N/A   Haze
10:35 AM -4.9 °F -25.6 °F -14.3 °F 64% 29.94 in 3.0 mi WNW 15.0 mph 25.3 mph N/A   Haze
10:54 AM -4.2 °F -27.3 °F -13.9 °F 63% 29.95 in 1.8 mi WNW 19.6 mph 26.5 mph N/A   Haze
11:14 AM -3.8 °F -25.6 °F -14.3 °F 61% 29.96 in 4.0 mi WNW 17.3 mph 23.0 mph N/A   Haze
11:35 AM -4.0 °F -27.6 °F -14.1 °F 62% 29.97 in 1.8 mi WNW 20.7 mph 28.8 mph N/A   Haze
11:54 AM -3.3 °F -26.6 °F -13.9 °F 60% 29.98 in 1.5 mi WNW 20.7 mph 29.9 mph N/A   Haze
12:15 PM -3.3 °F -27.6 °F -14.3 °F 59% 29.98 in 2.0 mi West 23.0 mph 28.8 mph N/A   Haze
12:35 PM -2.9 °F -26.1 °F -14.4 °F 58% 29.98 in 3.0 mi West 20.7 mph 28.8 mph N/A   Haze
12:54 PM -2.6 °F -24.0 °F -14.1 °F 58% 29.98 in 4.0 mi West 17.3 mph 24.2 mph N/A   Haze
1:15 PM -2.2 °F -24.1 °F -13.7 °F 58% 29.99 in 4.0 mi West 18.4 mph 24.2 mph N/A   Haze
1:34 PM -2.7 °F -22.9 °F -14.8 °F 56% 29.99 in 7.0 mi West 15.0 mph 21.9 mph N/A   Overcast
1:55 PM -1.7 °F -21.5 °F -13.9 °F 56% 29.99 in 10.0 mi West 15.0 mph 19.6 mph N/A   Overcast
2:14 PM -1.7 °F -21.5 °F -14.1 °F 56% 29.99 in 5.0 mi West 15.0 mph 23.0 mph N/A   Haze
2:34 PM -1.5 °F -21.9 °F -13.7 °F 56% 30.00 in 5.0 mi WNW 16.1 mph 21.9 mph N/A   Haze
2:55 PM -2.2 °F -20.7 °F -14.3 °F 57% 30.01 in 7.0 mi WNW 12.7 mph 24.2 mph N/A   Overcast
3:14 PM -1.5 °F -19.0 °F -13.9 °F 56% 30.00 in 10.0 mi WNW 11.5 mph 16.1 mph N/A   Overcast
3:35 PM -1.3 °F -21.0 °F -13.7 °F 56% 30.01 in 10.0 mi WNW 15.0 mph 18.4 mph N/A   Overcast
3:55 PM -1.7 °F -24.0 °F -13.5 °F 57% 30.01 in 3.0 mi WNW 19.6 mph 27.6 mph N/A   Haze
4:14 PM -1.7 °F -20.8 °F -13.5 °F 57% 30.02 in 5.0 mi WNW 13.8 mph 24.2 mph N/A   Haze
4:35 PM -1.3 °F -19.6 °F -13.0 °F 58% 30.03 in 7.0 mi West 12.7 mph 17.3 mph N/A   Overcast
4:55 PM -1.8 °F -21.0 °F -13.9 °F 57% 30.03 in 10.0 mi WNW 13.8 mph 18.4 mph N/A   Overcast
5:14 PM -2.9 °F -22.4 °F -14.8 °F 57% 30.03 in 10.0 mi WNW 13.8 mph 19.6 mph N/A   Overcast
5:35 PM -3.6 °F -23.3 °F -14.8 °F 59% 30.04 in 10.0 mi West 13.8 mph 20.7 mph N/A   Mostly Cloudy
5:54 PM -3.8 °F -24.9 °F -14.3 °F 61% 30.05 in 10.0 mi West 16.1 mph 19.6 mph N/A   Overcast
6:14 PM -4.2 °F -20.4 °F -14.3 °F 62% 30.06 in 10.0 mi West 9.2 mph - N/A   Overcast
6:35 PM -4.0 °F -21.2 °F -13.7 °F 63% 30.07 in 10.0 mi West 10.4 mph - N/A   Overcast
6:54 PM -4.2 °F -20.4 °F -13.4 °F 65% 30.07 in 10.0 mi West 9.2 mph - N/A   Overcast
7:15 PM -4.5 °F -20.8 °F -13.5 °F 65% 30.08 in 10.0 mi West 9.2 mph - N/A   Overcast
7:35 PM -5.1 °F -23.5 °F -14.1 °F 65% 30.07 in 10.0 mi West 11.5 mph - N/A   Scattered Clouds
7:54 PM -5.3 °F -23.7 °F -14.3 °F 65% 30.08 in 10.0 mi West 11.5 mph 18.4 mph N/A   Clear
8:15 PM -5.8 °F -27.5 °F -14.8 °F 65% 30.07 in 10.0 mi West 16.1 mph 19.6 mph N/A   Clear
8:34 PM -6.0 °F -27.7 °F -15.3 °F 64% 30.07 in 10.0 mi West 16.1 mph 21.9 mph N/A   Clear
8:54 PM -6.2 °F -28.6 °F -15.2 °F 65% 30.08 in 10.0 mi West 17.3 mph 21.9 mph N/A   Clear
9:15 PM -6.3 °F -23.1 °F -15.3 °F 65% 30.09 in 10.0 mi West 9.2 mph 19.6 mph N/A   Clear
9:34 PM -6.7 °F -23.5 °F -15.3 °F 66% 30.09 in 10.0 mi West 9.2 mph 17.3 mph N/A   Clear
9:55 PM -7.6 °F -23.4 °F -15.9 °F 67% 30.09 in 10.0 mi West 8.1 mph - N/A   Clear
10:14 PM -8.1 °F -24.1 °F -15.9 °F 69% 30.10 in 10.0 mi WSW 8.1 mph - N/A   Clear
10:35 PM -8.1 °F -22.7 °F -15.9 °F 69% 30.10 in 10.0 mi WSW 6.9 mph - N/A   Clear
10:55 PM -8.7 °F -25.9 °F -16.1 °F 70% 30.10 in 10.0 mi West 9.2 mph - N/A   Clear
11:14 PM -8.9 °F -25.0 °F -16.6 °F 69% 30.10 in 10.0 mi West 8.1 mph - N/A   Clear
11:35 PM -9.0 °F -27.4 °F -16.8 °F 69% 30.10 in 10.0 mi West 10.4 mph 17.3 mph N/A   Clear
11:55 PM -9.6 °F -27.0 °F -17.1 °F 69% 30.10 in 10.0 mi West 9.2 mph - N/A   Clear